Simultaneous Nadir Overpasses (SNOs) Predictions

Prediction of SNOs between LANDSAT-8 and NOAA-19 Satellite Orbit:

Table of predicted SNOs for the next 14.0 days since TLE Epoch: 6/15/2019
Index Date (LANDSAT-8) Time (LANDSAT-8) Lat,Lon (LANDSAT-8) SZA (LANDSAT-8 ) Date (NOAA-19) Time (NOAA-19) Lat,Lon (NOAA-19) SZA (NOAA-19 ) Distance(km) Time Diff (sec)
1 06/16/2019 17:19:31 78.82, -60.20 56.11 06/16/2019 17:19:35 78.82, -60.18 56.12 0.43 4
2 06/18/2019 22:53:16 -78.84, 36.49 123.93 06/18/2019 22:53:05 -78.83, 36.45 123.95 1.72 11
3 06/18/2019 23:42:46 78.67,-156.83 55.85 06/18/2019 23:43:55 78.63,-154.83 55.98 44.05 69
4 06/21/2019 04:27:00 78.84, 133.08 56.05 06/21/2019 04:26:26 78.84, 133.09 56.04 0.32 34
5 06/21/2019 05:16:28 -78.82, -59.44 123.99 06/21/2019 05:17:30 -78.80, -59.37 123.98 2.26 62
6 06/23/2019 10:00:45 -78.87,-130.23 123.92 06/23/2019 09:59:56 -78.84,-130.18 123.96 3.26 49
7 06/23/2019 10:50:12 78.81, 37.12 56.01 06/23/2019 10:50:51 78.82, 37.19 56.04 1.88 39
8 06/25/2019 15:34:29 78.86, -33.68 56.11 06/25/2019 15:33:17 78.87, -33.67 56.10 0.86 72
9 06/25/2019 16:23:57 -78.84, 133.82 123.92 06/25/2019 16:24:22 -78.85, 133.70 123.91 2.99 25




NCC Satellite Simultaneous Nadir Overpasses (SNOs) Prediction Service
